| time (UTC) | temp F | wind direction | speed knots | gust knots | rain 1hr in | rain 24hr in | rain mn in | humidity % | barometer mb |
| 20260509212656 | 43 | 135 | 0.0 | 0.0 | 0.00 | 0.00 | 0.00 | 96 | 1021.5 |
| 20260509211008 | 43 | 135 | 0.0 | 2.6 | 0.00 | 0.00 | 0.00 | 96 | 1021.4 |
| 20260509210656 | 43 | 115 | 1.7 | 2.6 | 0.00 | 0.00 | 0.00 | 96 | 1021.4 |
| 20260509210008 | 41 | 148 | 0.0 | 2.6 | 0.00 | 0.00 | 0.00 | 95 | 1021.3 |
| 20260509205008 | 41 | 114 | 0.0 | 2.6 | 0.00 | 0.00 | 0.00 | 95 | 1021.1 |
| 20260509204656 | 41 | 114 | 0.0 | 2.6 | 0.00 | 0.00 | 0.00 | 95 | 1021.0 |
| 20260509204009 | 41 | 138 | 0.0 | 1.7 | 0.00 | 0.00 | 0.00 | 93 | 1020.9 |
| 20260509203009 | 41 | 211 | 0.0 | 0.0 | 0.00 | 0.00 | 0.00 | 93 | 1020.9 |
| 20260509202655 | 41 | 211 | 0.0 | 0.0 | 0.00 | 0.00 | 0.00 | 93 | 1020.9 |
| 20260509202007 | 41 | 211 | 0.0 | 0.0 | 0.00 | 0.00 | 0.00 | 93 | 1020.8 |
| 20260509201008 | 41 | 211 | 0.0 | 0.0 | 0.00 | 0.00 | 0.00 | 93 | 1020.7 |
| 20260509200657 | 41 | 211 | 0.0 | 0.0 | 0.00 | 0.00 | 0.00 | 93 | 1020.7 |
| 20260509194656 | 41 | 211 | 0.0 | 0.0 | 0.00 | 0.00 | 0.00 | 90 | 1020.3 |
| 20260509194009 | 41 | 211 | 0.0 | 0.0 | 0.00 | 0.00 | 0.00 | 89 | 1020.2 |
| 20260509192656 | 41 | 211 | 0.0 | 0.0 | 0.00 | 0.00 | 0.00 | 89 | 1020.1 |
| 20260509192008 | 41 | 211 | 0.0 | 0.0 | 0.00 | 0.00 | 0.00 | 87 | 1020.1 |
| 20260509191009 | 41 | 211 | 0.0 | 0.0 | 0.00 | 0.00 | 0.00 | 85 | 1020.1 |
| 20260509190655 | 41 | 211 | 0.0 | 0.0 | 0.00 | 0.00 | 0.00 | 85 | 1019.9 |
| 20260509185008 | 43 | 211 | 0.0 | 0.0 | 0.00 | 0.00 | 0.00 | 85 | 1019.9 |
| 20260509184655 | 43 | 211 | 0.0 | 0.0 | 0.00 | 0.00 | 0.00 | 85 | 1019.8 |
| 20260509182656 | 43 | 211 | 0.0 | 0.0 | 0.00 | 0.00 | 0.00 | 83 | 1019.7 |
| 20260509180657 | 43 | 211 | 0.0 | 0.0 | 0.00 | 0.00 | 0.00 | 80 | 1019.6 |
| 20260509180009 | 43 | 211 | 0.0 | 2.6 | 0.00 | 0.00 | 0.00 | 80 | 1019.5 |
| 20260509175009 | 45 | 35 | 0.0 | 0.0 | 0.00 | 0.00 | 0.00 | 78 | 1019.4 |
| 20260509174657 | 45 | 35 | 0.0 | 0.0 | 0.00 | 0.00 | 0.00 | 78 | 1019.4 |
| 20260509174008 | 45 | 35 | 0.0 | 0.0 | 0.00 | 0.00 | 0.00 | 76 | 1019.2 |
| 20260509173009 | 45 | 35 | 0.0 | 0.0 | 0.00 | 0.00 | 0.00 | 74 | 1019.1 |
| 20260509172655 | 45 | 35 | 0.0 | 0.0 | 0.00 | 0.00 | 0.00 | 73 | 1019.1 |
| 20260509172009 | 45 | 35 | 0.0 | 0.0 | 0.00 | 0.00 | 0.00 | 72 | 1018.9 |
| 20260509171008 | 45 | 35 | 0.0 | 0.0 | 0.00 | 0.00 | 0.00 | 71 | 1018.8 |
| 20260509170656 | 45 | 35 | 0.0 | 0.0 | 0.00 | 0.00 | 0.00 | 72 | 1018.8 |
| 20260509170009 | 45 | 35 | 0.0 | 0.0 | 0.00 | 0.00 | 0.00 | 72 | 1018.9 |
| 20260509165009 | 45 | 35 | 0.0 | 0.0 | 0.00 | 0.00 | 0.00 | 72 | 1018.8 |
| 20260509164656 | 45 | 35 | 0.0 | 1.7 | 0.00 | 0.00 | 0.00 | 72 | 1018.9 |
| 20260509163009 | 46 | 120 | 0.0 | 0.0 | 0.00 | 0.00 | 0.00 | 70 | 1018.7 |
| 20260509162655 | 46 | 120 | 0.0 | 0.0 | 0.00 | 0.00 | 0.00 | 70 | 1018.7 |
| 20260509162008 | 46 | 120 | 0.0 | 0.0 | 0.00 | 0.00 | 0.00 | 70 | 1018.6 |
| 20260509161009 | 46 | 120 | 0.0 | 0.0 | 0.00 | 0.00 | 0.00 | 68 | 1018.7 |
| 20260509160656 | 46 | 120 | 0.0 | 0.0 | 0.00 | 0.00 | 0.00 | 68 | 1018.6 |
| 20260509160008 | 46 | 120 | 0.0 | 0.0 | 0.00 | 0.00 | 0.00 | 68 | 1018.6 |
| 20260509155008 | 46 | 120 | 0.0 | 0.0 | 0.00 | 0.00 | 0.00 | 67 | 1018.6 |
| 20260509154656 | 46 | 120 | 0.0 | 0.0 | 0.00 | 0.00 | 0.00 | 65 | 1018.6 |
| 20260509154009 | 46 | 120 | 0.0 | 0.0 | 0.00 | 0.00 | 0.00 | 64 | 1018.6 |
| 20260509153008 | 48 | 120 | 0.0 | 0.0 | 0.00 | 0.00 | 0.00 | 62 | 1018.5 |
| 20260509152656 | 48 | 120 | 0.0 | 0.0 | 0.00 | 0.00 | 0.00 | 61 | 1018.5 |
| 20260509152008 | 48 | 120 | 0.0 | 0.0 | 0.00 | 0.00 | 0.00 | 60 | 1018.5 |
| 20260509151009 | 48 | 120 | 0.0 | 0.0 | 0.00 | 0.00 | 0.00 | 59 | 1018.5 |
| 20260509150655 | 48 | 120 | 0.0 | 0.0 | 0.00 | 0.00 | 0.00 | 60 | 1018.5 |
| 20260509145009 | 50 | 120 | 0.0 | 0.0 | 0.00 | 0.06 | 0.00 | 62 | 1018.5 |
| 20260509144657 | 50 | 120 | 0.0 | 0.0 | 0.00 | 0.06 | 0.00 | 61 | 1018.5 |
| 20260509143009 | 50 | 356 | 0.0 | 4.3 | 0.00 | 0.06 | 0.00 | 52 | 1018.2 |
| 20260509142656 | 50 | 356 | 0.0 | 5.2 | 0.00 | 0.06 | 0.00 | 51 | 1018.2 |
| 20260509140656 | 52 | 350 | 3.5 | 9.6 | 0.00 | 0.06 | 0.00 | 50 | 1018.1 |
| 20260509134656 | 52 | 297 | 6.1 | 8.7 | 0.00 | 0.06 | 0.00 | 48 | 1018.3 |
| 20260509132655 | 52 | 11 | 0.0 | 5.2 | 0.00 | 0.06 | 0.00 | 50 | 1018.2 |
| 20260509130657 | 54 | 93 | 0.0 | 0.0 | 0.00 | 0.06 | 0.00 | 46 | 1017.9 |
| 20260509124656 | 54 | 308 | 0.0 | 6.1 | 0.00 | 0.06 | 0.00 | 43 | 1017.6 |
| 20260509122656 | 54 | 349 | 3.5 | 8.7 | 0.00 | 0.06 | 0.00 | 42 | 1017.6 |
| 20260509120655 | 55 | 359 | 3.5 | 8.7 | 0.00 | 0.06 | 0.00 | 42 | 1017.4 |
| 20260509114655 | 55 | 345 | 4.3 | 12.2 | 0.00 | 0.06 | 0.00 | 41 | 1017.1 |
| 20260509112656 | 55 | 342 | 7.8 | 13.9 | 0.00 | 0.06 | 0.00 | 41 | 1016.7 |
| 20260509110657 | 57 | 346 | 8.7 | 13.9 | 0.00 | 0.06 | 0.00 | 41 | 1016.4 |
| 20260509104656 | 57 | 335 | 7.0 | 13.9 | 0.00 | 0.06 | 0.00 | 40 | 1015.8 |
| 20260509102656 | 57 | 280 | 11.3 | 18.2 | 0.00 | 0.06 | 0.00 | 37 | 1015.3 |
| 20260509100656 | 59 | 270 | 7.8 | 14.8 | 0.00 | 0.06 | 0.00 | 34 | 1014.9 |
| 20260509094657 | 61 | 293 | 7.0 | 13.0 | 0.00 | 0.06 | 0.00 | 32 | 1014.4 |
| 20260509092656 | 61 | 307 | 9.6 | 16.5 | 0.00 | 0.06 | 0.00 | 30 | 1014.4 |
| 20260509090656 | 63 | 300 | 11.3 | 16.5 | 0.00 | 0.06 | 0.00 | 28 | 1014.0 |
| 20260509084655 | 63 | 288 | 12.2 | 20.0 | 0.00 | 0.06 | 0.00 | 27 | 1013.9 |
| 20260509082657 | 64 | 326 | 6.1 | 18.2 | 0.00 | 0.06 | 0.00 | 26 | 1013.7 |
| 20260509080656 | 64 | 277 | 8.7 | 19.1 | 0.00 | 0.06 | 0.00 | 24 | 1013.7 |
| 20260509074657 | 66 | 326 | 6.1 | 13.9 | 0.00 | 0.06 | 0.00 | 25 | 1013.8 |
| 20260509072655 | 66 | 294 | 10.4 | 16.5 | 0.00 | 0.06 | 0.00 | 23 | 1013.6 |
| 20260509070656 | 66 | 278 | 12.2 | 21.7 | 0.00 | 0.06 | 0.00 | 22 | 1013.2 |
| 20260509064657 | 68 | 274 | 9.6 | 15.6 | 0.00 | 0.06 | 0.00 | 20 | 1013.2 |
| 20260509062656 | 68 | 284 | 8.7 | 18.2 | 0.00 | 0.06 | 0.00 | 21 | 1013.0 |
| 20260509060656 | 68 | 329 | 7.8 | 20.0 | 0.00 | 0.06 | 0.00 | 20 | 1013.0 |
| 20260509054655 | 68 | 309 | 4.3 | 22.6 | 0.00 | 0.06 | 0.00 | 21 | 1013.0 |
| 20260509052656 | 68 | 291 | 11.3 | 20.0 | 0.00 | 0.06 | 0.00 | 20 | 1012.8 |
| 20260509050656 | 70 | 222 | 7.8 | 20.0 | 0.00 | 0.06 | 0.00 | 18 | 1012.8 |
| 20260509044656 | 68 | 274 | 12.2 | 19.1 | 0.00 | 0.06 | 0.00 | 18 | 1012.9 |
| 20260509042655 | 68 | 264 | 12.2 | 25.2 | 0.00 | 0.06 | 0.00 | 17 | 1013.0 |
| 20260509040657 | 68 | 269 | 7.8 | 23.5 | 0.00 | 0.06 | 0.00 | 21 | 1012.8 |
| 20260509034656 | 68 | 290 | 9.6 | 19.1 | 0.00 | 0.06 | 0.00 | 21 | 1012.8 |
| 20260509033009 | 68 | 273 | 15.6 | 28.7 | 0.00 | 0.06 | 0.00 | 23 | 1012.7 |
| 20260509032655 | 68 | 256 | 9.6 | 17.4 | 0.00 | 0.06 | 0.00 | 24 | 1012.7 |
| 20260509032009 | 68 | 338 | 12.2 | 23.5 | 0.00 | 0.06 | 0.00 | 25 | 1012.6 |
| 20260509030655 | 68 | 304 | 6.1 | 26.1 | 0.00 | 0.06 | 0.00 | 25 | 1012.4 |
| 20260509025008 | 68 | 280 | 13.0 | 20.9 | 0.00 | 0.06 | 0.00 | 24 | 1012.4 |
| 20260509024656 | 68 | 260 | 9.6 | 20.9 | 0.00 | 0.06 | 0.00 | 25 | 1012.4 |
| 20260509024009 | 68 | 249 | 6.1 | 19.1 | 0.00 | 0.06 | 0.00 | 23 | 1012.6 |
| 20260509022657 | 68 | 301 | 10.4 | 17.4 | 0.00 | 0.06 | 0.00 | 27 | 1012.6 |
| 20260509020656 | 68 | 333 | 5.2 | 9.6 | 0.00 | 0.06 | 0.00 | 28 | 1012.6 |
| 20260509014656 | 66 | 278 | 0.9 | 7.8 | 0.00 | 0.06 | 0.00 | 31 | 1012.7 |
| 20260509012656 | 66 | 243 | 1.7 | 9.6 | 0.00 | 0.06 | 0.00 | 35 | 1012.8 |
| 20260509010657 | 66 | 58 | 1.7 | 8.7 | 0.00 | 0.06 | 0.00 | 35 | 1012.4 |
| 20260509004657 | 64 | 131 | 2.6 | 7.8 | 0.00 | 0.06 | 0.00 | 40 | 1012.2 |
| 20260509002656 | 64 | 156 | 7.0 | 8.7 | 0.00 | 0.06 | 0.00 | 37 | 1012.0 |
| 20260509002009 | 64 | 122 | 2.6 | 7.8 | 0.00 | 0.06 | 0.00 | 41 | 1011.9 |
| 20260509000656 | 63 | 25 | 7.8 | 19.1 | 0.00 | 0.06 | 0.00 | 37 | 1011.9 |
| 20260508234656 | 61 | 83 | 6.1 | 7.8 | 0.00 | 0.06 | 0.00 | 45 | 1012.0 |
| 20260508232657 | 61 | 31 | 1.7 | 6.1 | 0.00 | 0.06 | 0.00 | 47 | 1011.8 |
| 20260508230657 | 59 | 73 | 7.0 | 11.3 | 0.00 | 0.06 | 0.00 | 50 | 1011.7 |
| 20260508230008 | 57 | 352 | 4.3 | 10.4 | 0.00 | 0.06 | 0.00 | 46 | 1011.4 |
| 20260508225008 | 55 | 68 | 5.2 | 8.7 | 0.00 | 0.06 | 0.00 | 55 | 1011.8 |
| 20260508224655 | 55 | 75 | 2.6 | 7.8 | 0.00 | 0.06 | 0.00 | 55 | 1011.8 |
| 20260508224009 | 55 | 77 | 6.1 | 7.8 | 0.00 | 0.06 | 0.00 | 57 | 1011.8 |
| 20260508223009 | 55 | 83 | 1.7 | 8.7 | 0.00 | 0.06 | 0.00 | 58 | 1011.8 |
| 20260508222656 | 54 | 58 | 6.1 | 8.7 | 0.00 | 0.06 | 0.00 | 58 | 1011.8 |
| 20260508221008 | 54 | 198 | 0.0 | 5.2 | 0.00 | 0.06 | 0.00 | 60 | 1011.9 |
| 20260508220655 | 54 | 198 | 0.9 | 7.0 | 0.00 | 0.06 | 0.00 | 59 | 1011.8 |
| 20260508214656 | 54 | 53 | 4.3 | 7.0 | 0.00 | 0.06 | 0.00 | 62 | 1011.7 |